Погода в Дагестанской

Россия / Республика Адыгея     44°22′29″N   40°01′12″E
темп.,
°C
ветер,
м/с
пор.,
м/с
влажн.,
%
обл.,
%
осадки,
мм/ч
давл.,
гПа
погр.,
м
17 августа, ср
ср1700:00+18ююз11970 2.2 101417
03:00+17ю22930 2.2 101322
06:00+17ю21930 0.3 101218
09:00+23с11720 0.5 1012470
12:00+26с21674 0.8 1011956
15:00+27в016429 2.4 1010781
18:00+23вюв228617 1.3 101174
21:00+19ююв32910 1.3 101138
18 августа, чт
чт1800:00+18ююв22870 0.1 101025
03:00+18ююз22860 0.1 101017
06:00+17ююв11890 0.1 101113
09:00+24с216767 0.1 1010585
12:00+23с217723 1.4 1010565
15:00+25всв127544 7.4 1009548
18:00+22ююв228541 3.4 100943
21:00+18ю229423 6.7 101034
19 августа, пт
пт1900:00+17ю229391 0.8 101029
03:00+17ю229023 0.9 100931
06:00+17ю229045 0.3 100925
09:00+22зюз0175100 0.3 1009208
12:00+22сз117999 1.4 1010311
15:00+22вюв017571 9.1 1010363
18:00+21св129051 1.8 100966
21:00+17ю229465 2.6 101027
20 августа, сб
сб2000:00+16ю2293100 0.0 101126
03:00+17ю228950 0.1 101116
06:00+16ююв229228 0.3 101128
09:00+23ссв11677 0.3 1011436
12:00+25ссз2264100 1.1 10111082
15:00+19вюв2495100 10.3 1012104
18:00+22в238637 0.6 1010201
21:00+18ююв228868 0.6 101130
21 августа, вс
вс2100:00+18ю227672 0.0 101020
03:00+17ю238889 0.5 100944
06:00+16ю328225 0.0 101041
09:00+25ссз21525 0.0 1008434
12:00+26ссз215010 0.0 10081028
15:00+28ссв234610 0.1 10071576
18:00+25св11700 0.0 100722
21:00+20ю22770 0.1 100727